This is the latest recevied weather packets stored in our database for station/object IW4CYE-7. If no packets are shown the sender has not sent any weather packets the latest 10 day(s).
| Time | Temp. | Humidity | Pressure | Rain* | Wind** | Luminosity | Snow |
|---|---|---|---|---|---|---|---|
| 1787995642 | 30° C | 50% | 1003.4 hPa | 0 mm | - | - | - |
| 1787995042 | 29.44° C | 53% | 1003.7 hPa | 0 mm | - | - | - |
| 1787994442 | 28.89° C | 56% | 1003.7 hPa | 0 mm | - | - | - |
| 1787993842 | 28.89° C | 55% | 1003.7 hPa | 0 mm | - | - | - |
| 1787993242 | 28.33° C | 59% | 1003.4 hPa | 0 mm | - | - | - |
| 1787992642 | 28.33° C | 60% | 1003.4 hPa | 0 mm | - | - | - |
| 1787992042 | 27.78° C | 59% | 1003 hPa | 0 mm | - | - | - |
| 1787991442 | 27.78° C | 72% | 1003.4 hPa | 0 mm | - | - | - |
| 1787990842 | 27.22° C | 73% | 1003 hPa | 0 mm | - | - | - |
| 1787990242 | 26.67° C | 75% | 1003 hPa | 0 mm | - | - | - |
| 1787989642 | 26.11° C | 78% | 1003 hPa | 0 mm | - | - | - |
| 1787989042 | 26.11° C | 79% | 1003 hPa | 0 mm | - | - | - |
| 1787988442 | 25.56° C | 80% | 1003 hPa | 0 mm | - | - | - |
| 1787987842 | 25° C | 84% | 1002.7 hPa | 0 mm | - | - | - |
| 1787987242 | 24.44° C | 87% | 1003 hPa | 0 mm | - | - | - |
| 1787986642 | 23.33° C | 90% | 1003 hPa | 0 mm | - | - | - |
| 1787986042 | 23.33° C | 92% | 1003 hPa | 0 mm | - | - | - |
| 1787985442 | 22.78° C | 93% | 1002.7 hPa | 0 mm | - | - | - |
| 1787984842 | 22.22° C | 94% | 1002.4 hPa | 0 mm | - | - | - |
| 1787984242 | 22.22° C | 95% | 1002.4 hPa | 0 mm | - | - | - |
| 1787983642 | 22.22° C | 95% | 1002.4 hPa | 0 mm | - | - | - |
| 1787983042 | 21.67° C | 95% | 1002 hPa | 0 mm | - | - | - |
| 1787982442 | 21.67° C | 95% | 1002 hPa | 0 mm | - | - | - |
| 1787981842 | 21.67° C | 96% | 1002 hPa | 0 mm | - | - | - |
| 1787981242 | 21.67° C | 96% | 1002 hPa | 0 mm | - | - | - |
* Rain latest hour (hover to see other rain measurements)
** Current wind speed in m/s (hover to see current wind gust speed)